Time,TemperatureF,DewpointF,PressureIn,WindDirection,WindDirectionDegrees,WindSpeedMPH,WindSpeedGustMPH,Humidity,HourlyPrecipIn,Conditions,Clouds,dailyrainin,SoftwareType,DateUTC
2013-06-13 00:01:00,64.0,62.0,29.63,East,80,6.0,-999.0,93,-99.99,,,-99.99,,2013-06-13 04:01:00,
2013-06-13 00:12:00,64.0,62.0,29.63,East,80,6.0,-999.0,93,-99.99,,,-99.99,,2013-06-13 04:12:00,
2013-06-13 00:22:00,64.0,62.0,29.63,East,80,6.0,-999.0,93,-99.99,,,-99.99,,2013-06-13 04:22:00,
2013-06-13 00:43:00,66.0,61.0,29.64,East,82,2.0,-999.0,85,-99.99,,,-99.99,,2013-06-13 04:43:00,
2013-06-13 00:54:00,65.0,60.0,29.64,ENE,78,1.0,-999.0,85,-99.99,,,-99.99,,2013-06-13 04:54:00,
2013-06-13 01:02:00,65.0,60.0,29.64,ENE,78,1.0,-999.0,85,-99.99,,,-99.99,,2013-06-13 05:02:00,
2013-06-13 01:12:00,65.0,61.0,29.64,NE,51,2.0,-999.0,86,-99.99,,,-99.99,,2013-06-13 05:12:00,
2013-06-13 01:24:00,66.0,62.0,29.64,North,5,5.0,-999.0,86,-99.99,,,-99.99,,2013-06-13 05:24:00,
2013-06-13 01:33:00,66.0,62.0,29.64,North,5,5.0,-999.0,86,-99.99,,,-99.99,,2013-06-13 05:33:00,
2013-06-13 01:43:00,66.0,62.0,29.64,North,5,5.0,-999.0,86,-99.99,,,-99.99,,2013-06-13 05:43:00,
2013-06-13 01:53:00,66.0,62.0,29.64,North,5,5.0,-999.0,86,-99.99,,,-99.99,,2013-06-13 05:53:00,
2013-06-13 02:02:00,64.0,61.0,29.63,NNE,29,8.0,-999.0,90,-99.99,,,-99.99,,2013-06-13 06:02:00,
2013-06-13 02:11:00,63.0,61.0,29.62,NNE,14,9.0,-999.0,92,-99.99,,,-99.99,,2013-06-13 06:11:00,
2013-06-13 02:22:00,63.0,61.0,29.62,NNE,14,9.0,-999.0,92,-99.99,,,-99.99,,2013-06-13 06:22:00,
2013-06-13 02:33:00,62.0,60.0,29.62,NNE,18,6.0,-999.0,93,-99.99,,,-99.99,,2013-06-13 06:33:00,
2013-06-13 02:44:00,62.0,60.0,29.62,NNE,18,6.0,-999.0,93,-99.99,,,-99.99,,2013-06-13 06:44:00,
2013-06-13 02:52:00,62.0,60.0,29.62,NNE,18,6.0,-999.0,93,-99.99,,,-99.99,,2013-06-13 06:52:00,
2013-06-13 03:01:00,62.0,60.0,29.62,NNE,18,6.0,-999.0,93,-99.99,,,-99.99,,2013-06-13 07:01:00,
2013-06-13 03:12:00,62.0,60.0,29.62,North,360,9.0,-999.0,92,-99.99,,,-99.99,,2013-06-13 07:12:00,
2013-06-13 03:22:00,62.0,60.0,29.62,North,360,9.0,-999.0,92,-99.99,,,-99.99,,2013-06-13 07:22:00,
2013-06-13 03:33:00,63.0,60.0,29.63,North,355,5.0,-999.0,91,-99.99,,,-99.99,,2013-06-13 07:33:00,
2013-06-13 03:42:00,63.0,60.0,29.63,North,9,7.0,-999.0,91,-99.99,,,-99.99,,2013-06-13 07:42:00,
2013-06-13 03:52:00,63.0,60.0,29.63,North,9,7.0,-999.0,91,-99.99,,,-99.99,,2013-06-13 07:52:00,
2013-06-13 04:01:00,63.0,61.0,29.63,North,5,7.0,-999.0,92,-99.99,,,-99.99,,2013-06-13 08:01:00,
2013-06-13 04:11:00,63.0,61.0,29.63,NNW,342,8.0,-999.0,93,-99.99,,,-99.99,,2013-06-13 08:11:00,
2013-06-13 04:22:00,63.0,61.0,29.63,NNW,342,8.0,-999.0,93,-99.99,,,-99.99,,2013-06-13 08:22:00,
2013-06-13 04:32:00,61.0,59.0,29.62,North,5,7.0,-999.0,94,-99.99,,,-99.99,,2013-06-13 08:32:00,
2013-06-13 04:43:00,61.0,59.0,29.62,North,5,7.0,-999.0,94,-99.99,,,-99.99,,2013-06-13 08:43:00,
2013-06-13 04:52:00,61.0,59.0,29.62,North,5,7.0,-999.0,94,-99.99,,,-99.99,,2013-06-13 08:52:00,
2013-06-13 05:02:00,61.0,60.0,29.62,North,355,8.0,-999.0,95,-99.99,,,-99.99,,2013-06-13 09:02:00,
2013-06-13 05:12:00,61.0,60.0,29.63,North,360,9.0,-999.0,95,-99.99,,,-99.99,,2013-06-13 09:12:00,
2013-06-13 05:22:00,61.0,60.0,29.63,North,360,9.0,-999.0,95,-99.99,,,-99.99,,2013-06-13 09:22:00,
2013-06-13 05:32:00,61.0,60.0,29.63,NNW,348,9.0,-999.0,95,-99.99,,,-99.99,,2013-06-13 09:32:00,
2013-06-13 05:42:00,61.0,60.0,29.63,NNW,344,9.0,-999.0,95,-99.99,,,-99.99,,2013-06-13 09:42:00,
2013-06-13 05:52:00,61.0,60.0,29.63,NNW,344,9.0,-999.0,95,-99.99,,,-99.99,,2013-06-13 09:52:00,
2013-06-13 06:01:00,61.0,59.0,29.64,North,9,6.0,-999.0,94,-99.99,,,-99.99,,2013-06-13 10:01:00,
2013-06-13 06:11:00,61.0,59.0,29.64,North,355,6.0,-999.0,94,-99.99,,,-99.99,,2013-06-13 10:11:00,
2013-06-13 06:22:00,61.0,59.0,29.64,North,355,6.0,-999.0,94,-99.99,,,-99.99,,2013-06-13 10:22:00,
2013-06-13 06:33:00,61.0,59.0,29.65,NNW,345,7.0,-999.0,93,-99.99,,,-99.99,,2013-06-13 10:33:00,
2013-06-13 06:43:00,60.0,58.0,29.65,NNW,336,7.0,-999.0,92,-99.99,,,-99.99,,2013-06-13 10:43:00,
2013-06-13 06:53:00,60.0,58.0,29.65,NNW,336,7.0,-999.0,92,-99.99,,,-99.99,,2013-06-13 10:53:00,
2013-06-13 07:02:00,60.0,57.0,29.66,NNW,340,7.0,-999.0,91,-99.99,,,-99.99,,2013-06-13 11:02:00,
2013-06-13 07:12:00,60.0,57.0,29.66,NNW,338,7.0,-999.0,90,-99.99,,,-99.99,,2013-06-13 11:12:00,
2013-06-13 07:24:00,60.0,57.0,29.66,NNW,338,7.0,-999.0,90,-99.99,,,-99.99,,2013-06-13 11:24:00,
2013-06-13 07:32:00,60.0,56.0,29.66,NNW,336,8.0,-999.0,88,-99.99,,,-99.99,,2013-06-13 11:32:00,
2013-06-13 07:42:00,60.0,56.0,29.66,NNW,332,8.0,-999.0,87,-99.99,,,-99.99,,2013-06-13 11:42:00,
2013-06-13 07:52:00,60.0,56.0,29.66,NNW,332,8.0,-999.0,87,-99.99,,,-99.99,,2013-06-13 11:52:00,
2013-06-13 08:01:00,61.0,56.0,29.66,NNW,342,9.0,-999.0,85,-99.99,,,-99.99,,2013-06-13 12:01:00,
2013-06-13 08:12:00,61.0,56.0,29.66,NNW,342,9.0,-999.0,85,-99.99,,,-99.99,,2013-06-13 12:12:00,
2013-06-13 08:22:00,61.0,56.0,29.66,NNW,342,9.0,-999.0,85,-99.99,,,-99.99,,2013-06-13 12:22:00,
2013-06-13 08:35:00,63.0,56.0,29.67,NNW,334,9.0,-999.0,79,-99.99,,,-99.99,,2013-06-13 12:35:00,
2013-06-13 08:43:00,64.0,56.0,29.67,NNW,338,10.0,-999.0,75,-99.99,,,-99.99,,2013-06-13 12:43:00,
2013-06-13 08:52:00,64.0,56.0,29.67,NNW,338,10.0,-999.0,75,-99.99,,,-99.99,,2013-06-13 12:52:00,
2013-06-13 09:01:00,65.0,56.0,29.67,NW,313,10.0,-999.0,72,-99.99,,,-99.99,,2013-06-13 13:01:00,
2013-06-13 09:11:00,65.0,55.0,29.68,NW,317,10.0,-999.0,71,-99.99,,,-99.99,,2013-06-13 13:11:00,
2013-06-13 09:22:00,65.0,55.0,29.68,NW,317,10.0,-999.0,71,-99.99,,,-99.99,,2013-06-13 13:22:00,
2013-06-13 09:33:00,66.0,55.0,29.69,NNW,331,13.0,-999.0,68,-99.99,,,-99.99,,2013-06-13 13:33:00,
2013-06-13 09:43:00,66.0,56.0,29.69,NW,313,16.0,-999.0,70,-99.99,,,-99.99,,2013-06-13 13:43:00,
2013-06-13 09:53:00,66.0,56.0,29.69,NW,313,16.0,-999.0,70,-99.99,,,-99.99,,2013-06-13 13:53:00,
2013-06-13 10:02:00,67.0,56.0,29.70,NNW,346,13.0,-999.0,69,-99.99,,,-99.99,,2013-06-13 14:02:00,
2013-06-13 10:11:00,67.0,56.0,29.70,NNW,346,13.0,-999.0,69,-99.99,,,-99.99,,2013-06-13 14:11:00,
2013-06-13 10:22:00,68.0,57.0,29.70,NNW,345,12.0,-999.0,67,-99.99,,,-99.99,,2013-06-13 14:22:00,
2013-06-13 10:33:00,68.0,57.0,29.70,NNW,345,12.0,-999.0,67,-99.99,,,-99.99,,2013-06-13 14:33:00,
2013-06-13 10:43:00,69.0,56.0,29.70,NW,319,14.0,-999.0,63,-99.99,,,-99.99,,2013-06-13 14:43:00,
2013-06-13 10:53:00,69.0,56.0,29.70,NW,319,14.0,-999.0,63,-99.99,,,-99.99,,2013-06-13 14:53:00,
2013-06-13 11:02:00,70.0,56.0,29.70,NNW,342,14.0,-999.0,62,-99.99,,,-99.99,,2013-06-13 15:02:00,
2013-06-13 11:12:00,71.0,57.0,29.70,NNW,334,13.0,-999.0,61,-99.99,,,-99.99,,2013-06-13 15:12:00,
2013-06-13 11:22:00,71.0,57.0,29.70,NNW,334,13.0,-999.0,61,-99.99,,,-99.99,,2013-06-13 15:22:00,
2013-06-13 11:33:00,72.0,56.0,29.71,NNW,346,12.0,-999.0,58,-99.99,,,-99.99,,2013-06-13 15:33:00,
2013-06-13 11:43:00,72.0,56.0,29.71,NNW,346,12.0,-999.0,58,-99.99,,,-99.99,,2013-06-13 15:43:00,
2013-06-13 11:53:00,72.0,57.0,29.71,NNW,333,14.0,-999.0,59,-99.99,,,-99.99,,2013-06-13 15:53:00,
2013-06-13 12:02:00,70.0,58.0,29.72,NNE,28,10.0,-999.0,66,-99.99,,,-99.99,,2013-06-13 16:02:00,
2013-06-13 12:12:00,70.0,60.0,29.72,NE,49,10.0,-999.0,70,-99.99,,,-99.99,,2013-06-13 16:12:00,
2013-06-13 12:22:00,70.0,60.0,29.72,NE,49,10.0,-999.0,70,-99.99,,,-99.99,,2013-06-13 16:22:00,
2013-06-13 12:33:00,68.0,59.0,29.73,NE,46,7.0,-999.0,74,-99.99,,,-99.99,,2013-06-13 16:33:00,
2013-06-13 12:43:00,68.0,59.0,29.72,East,82,6.0,-999.0,74,-99.99,,,-99.99,,2013-06-13 16:43:00,
2013-06-13 12:53:00,68.0,59.0,29.72,East,82,6.0,-999.0,74,-99.99,,,-99.99,,2013-06-13 16:53:00,
2013-06-13 13:02:00,69.0,60.0,29.73,ENE,66,5.0,-999.0,74,-99.99,,,-99.99,,2013-06-13 17:02:00,
2013-06-13 13:12:00,69.0,60.0,29.73,ENE,66,5.0,-999.0,74,-99.99,,,-99.99,,2013-06-13 17:12:00,
2013-06-13 13:24:00,70.0,61.0,29.74,ENE,60,5.0,-999.0,72,-99.99,,,-99.99,,2013-06-13 17:24:00,
2013-06-13 13:33:00,70.0,61.0,29.74,ENE,60,5.0,-999.0,72,-99.99,,,-99.99,,2013-06-13 17:33:00,
2013-06-13 13:43:00,70.0,62.0,29.75,NE,56,4.0,-999.0,75,-99.99,,,-99.99,,2013-06-13 17:43:00,
2013-06-13 13:53:00,70.0,62.0,29.75,NE,56,4.0,-999.0,75,-99.99,,,-99.99,,2013-06-13 17:53:00,
2013-06-13 14:02:00,69.0,60.0,29.75,ENE,67,5.0,-999.0,74,-99.99,,,-99.99,,2013-06-13 18:02:00,
2013-06-13 14:11:00,68.0,61.0,29.76,ESE,113,9.0,-999.0,79,-99.99,,,-99.99,,2013-06-13 18:11:00,
2013-06-13 14:22:00,68.0,61.0,29.76,ESE,113,9.0,-999.0,79,-99.99,,,-99.99,,2013-06-13 18:22:00,
2013-06-13 14:33:00,68.0,60.0,29.76,ENE,62,6.0,-999.0,75,-99.99,,,-99.99,,2013-06-13 18:33:00,
2013-06-13 14:43:00,70.0,61.0,29.77,ENE,66,6.0,-999.0,72,-99.99,,,-99.99,,2013-06-13 18:43:00,
2013-06-13 14:52:00,70.0,61.0,29.77,ENE,66,6.0,-999.0,72,-99.99,,,-99.99,,2013-06-13 18:52:00,
2013-06-13 15:01:00,68.0,59.0,29.77,ENE,76,9.0,-999.0,73,-99.99,,,-99.99,,2013-06-13 19:01:00,
2013-06-13 15:11:00,69.0,60.0,29.78,ENE,70,7.0,-999.0,74,-99.99,,,-99.99,,2013-06-13 19:11:00,
2013-06-13 15:22:00,69.0,60.0,29.78,ENE,70,7.0,-999.0,74,-99.99,,,-99.99,,2013-06-13 19:22:00,
2013-06-13 15:33:00,69.0,60.0,29.78,ENE,57,5.0,-999.0,72,-99.99,,,-99.99,,2013-06-13 19:33:00,
2013-06-13 15:43:00,69.0,60.0,29.78,NNE,30,8.0,-999.0,74,-99.99,,,-99.99,,2013-06-13 19:43:00,
2013-06-13 15:53:00,69.0,60.0,29.78,NNE,30,8.0,-999.0,74,-99.99,,,-99.99,,2013-06-13 19:53:00,
2013-06-13 16:02:00,68.0,60.0,29.78,East,80,5.0,-999.0,75,-99.99,,,-99.99,,2013-06-13 20:02:00,
2013-06-13 16:11:00,69.0,60.0,29.78,East,86,4.0,-999.0,74,-99.99,,,-99.99,,2013-06-13 20:11:00,
2013-06-13 16:22:00,69.0,60.0,29.78,East,86,4.0,-999.0,74,-99.99,,,-99.99,,2013-06-13 20:22:00,
2013-06-13 16:33:00,69.0,61.0,29.79,ENE,67,5.0,-999.0,76,-99.99,,,-99.99,,2013-06-13 20:33:00,
2013-06-13 16:44:00,69.0,61.0,29.79,ENE,67,5.0,-999.0,76,-99.99,,,-99.99,,2013-06-13 20:44:00,
2013-06-13 16:53:00,69.0,60.0,29.79,ENE,62,4.0,-999.0,74,-99.99,,,-99.99,,2013-06-13 20:53:00,
2013-06-13 17:02:00,68.0,59.0,29.79,ENE,57,5.0,-999.0,73,-99.99,,,-99.99,,2013-06-13 21:02:00,
2013-06-13 17:11:00,67.0,59.0,29.80,NE,44,6.0,-999.0,76,-99.99,,,-99.99,,2013-06-13 21:11:00,
2013-06-13 17:22:00,67.0,59.0,29.80,NE,44,6.0,-999.0,76,-99.99,,,-99.99,,2013-06-13 21:22:00,
2013-06-13 17:34:00,68.0,60.0,29.81,North,11,5.0,-999.0,76,-99.99,,,-99.99,,2013-06-13 21:34:00,
2013-06-13 17:43:00,68.0,59.0,29.81,NNE,22,4.0,-999.0,74,-99.99,,,-99.99,,2013-06-13 21:43:00,
2013-06-13 17:52:00,68.0,59.0,29.81,NNE,22,4.0,-999.0,74,-99.99,,,-99.99,,2013-06-13 21:52:00,
2013-06-13 18:02:00,68.0,58.0,29.81,North,10,4.0,-999.0,71,-99.99,,,-99.99,,2013-06-13 22:02:00,
2013-06-13 18:11:00,70.0,59.0,29.81,ENE,59,1.0,-999.0,68,-99.99,,,-99.99,,2013-06-13 22:11:00,
2013-06-13 18:22:00,70.0,59.0,29.81,ENE,59,1.0,-999.0,68,-99.99,,,-99.99,,2013-06-13 22:22:00,
2013-06-13 18:33:00,69.0,59.0,29.81,NE,55,2.0,-999.0,70,-99.99,,,-99.99,,2013-06-13 22:33:00,
2013-06-13 18:43:00,68.0,59.0,29.81,NE,47,1.0,-999.0,72,-99.99,,,-99.99,,2013-06-13 22:43:00,
2013-06-13 18:52:00,68.0,59.0,29.81,NE,47,1.0,-999.0,72,-99.99,,,-99.99,,2013-06-13 22:52:00,
2013-06-13 19:02:00,68.0,59.0,29.81,East,80,1.0,-999.0,72,-99.99,,,-99.99,,2013-06-13 23:02:00,
2013-06-13 19:11:00,68.0,58.0,29.82,NE,56,0.0,-999.0,71,-99.99,,,-99.99,,2013-06-13 23:11:00,
2013-06-13 19:22:00,68.0,58.0,29.82,NE,56,0.0,-999.0,71,-99.99,,,-99.99,,2013-06-13 23:22:00,
2013-06-13 19:32:00,68.0,58.0,29.82,ENE,78,0.0,-999.0,71,-99.99,,,-99.99,,2013-06-13 23:32:00,
2013-06-13 19:43:00,67.0,58.0,29.83,East,89,0.0,-999.0,73,-99.99,,,-99.99,,2013-06-13 23:43:00,
2013-06-13 19:52:00,67.0,58.0,29.83,East,89,0.0,-999.0,73,-99.99,,,-99.99,,2013-06-13 23:52:00,
2013-06-13 20:01:00,67.0,58.0,29.83,SSE,161,0.0,-999.0,73,-99.99,,,-99.99,,2013-06-14 00:01:00,
2013-06-13 20:12:00,67.0,58.0,29.83,SSE,161,0.0,-999.0,73,-99.99,,,-99.99,,2013-06-14 00:12:00,
2013-06-13 20:22:00,67.0,58.0,29.83,SSE,153,0.0,-999.0,74,-99.99,,,-99.99,,2013-06-14 00:22:00,
2013-06-13 20:34:00,67.0,58.0,29.84,SSE,166,1.0,-999.0,74,-99.99,,,-99.99,,2013-06-14 00:34:00,
2013-06-13 20:43:00,67.0,59.0,29.84,SSE,166,0.0,-999.0,75,-99.99,,,-99.99,,2013-06-14 00:43:00,
2013-06-13 20:53:00,67.0,59.0,29.84,SSE,166,0.0,-999.0,75,-99.99,,,-99.99,,2013-06-14 00:53:00,
2013-06-13 21:01:00,67.0,59.0,29.84,SSE,166,0.0,-999.0,75,-99.99,,,-99.99,,2013-06-14 01:01:00,
2013-06-13 21:11:00,67.0,59.0,29.84,SSE,166,0.0,-999.0,75,-99.99,,,-99.99,,2013-06-14 01:11:00,
2013-06-13 21:22:00,67.0,59.0,29.85,SSE,166,0.0,-999.0,76,-99.99,,,-99.99,,2013-06-14 01:22:00,
2013-06-13 21:33:00,66.0,59.0,29.85,SSE,166,0.0,-999.0,78,-99.99,,,-99.99,,2013-06-14 01:33:00,
2013-06-13 21:43:00,66.0,60.0,29.85,South,182,0.0,-999.0,80,-99.99,,,-99.99,,2013-06-14 01:43:00,
2013-06-13 21:52:00,66.0,60.0,29.85,South,182,0.0,-999.0,80,-99.99,,,-99.99,,2013-06-14 01:52:00,
2013-06-13 22:02:00,66.0,60.0,29.86,NW,311,7.0,-999.0,82,-99.99,,,-99.99,,2013-06-14 02:02:00,
2013-06-13 22:11:00,66.0,60.0,29.86,NW,321,8.0,-999.0,80,-99.99,,,-99.99,,2013-06-14 02:11:00,
2013-06-13 22:22:00,66.0,60.0,29.86,NW,321,8.0,-999.0,80,-99.99,,,-99.99,,2013-06-14 02:22:00,
2013-06-13 22:32:00,66.0,60.0,29.87,NNW,331,8.0,-999.0,81,-99.99,,,-99.99,,2013-06-14 02:32:00,
2013-06-13 22:43:00,66.0,60.0,29.87,NNW,331,8.0,-999.0,81,-99.99,,,-99.99,,2013-06-14 02:43:00,
2013-06-13 22:52:00,66.0,60.0,29.87,NW,324,7.0,-999.0,82,-99.99,,,-99.99,,2013-06-14 02:52:00,
2013-06-13 23:02:00,65.0,59.0,29.88,NW,307,7.0,-999.0,82,-99.99,,,-99.99,,2013-06-14 03:02:00,
2013-06-13 23:12:00,65.0,59.0,29.88,NW,319,6.0,-999.0,82,-99.99,,,-99.99,,2013-06-14 03:12:00,
2013-06-13 23:22:00,65.0,59.0,29.88,NW,319,6.0,-999.0,82,-99.99,,,-99.99,,2013-06-14 03:22:00,
2013-06-13 23:34:00,65.0,59.0,29.89,NW,313,6.0,-999.0,81,-99.99,,,-99.99,,2013-06-14 03:34:00,
2013-06-13 23:43:00,64.0,59.0,29.89,NW,318,6.0,-999.0,84,-99.99,,,-99.99,,2013-06-14 03:43:00,
2013-06-13 23:53:00,64.0,59.0,29.89,NW,318,6.0,-999.0,84,-99.99,,,-99.99,,2013-06-14 03:53:00,